Weather History for Limon, CO

Change the Weather History Date:

Saturday, February 8, 2014

  Actual Average Record
Temperature  
Mean Temperature 22 °F -  
Max Temperature 38 °F - 68 °F (2000)
Min Temperature 5 °F - -9 °F (2012)
Degree Days  
Heating Degree Days 43    
Month to date heating degree days 481  
Cooling Degree Days 0    
Month to date cooling degree days 0  
Moisture  
Dew Point 14 °F    
Average Humidity 73    
Maximum Humidity 92    
Minimum Humidity 54    
Precipitation  
Precipitation 0.00 in - 0.06 in (2009)
Month to date precipitation 0.15  
Year to date precipitation 1.13  
Sea Level Pressure  
Sea Level Pressure 29.99 in    
Wind  
Wind Speed 5 mph (NNE)    
Max Wind Speed 22 mph    
Max Gust Speed 25 mph    
Visibility 8 miles    
Events      
T = Trace of Precipitation, MM = Missing Value Source: NWS Daily Summary

Daily Weather History Graph

Daily Weather History Graph

Search for Another Location

Airport:

Trip Planner

Search our weather history database for the weather conditions in past years. The results will help you decide how hot, cold, wet, or windy it might be!

Date:

Astronomy

Feb. 08, 2014 Rise Set
Actual Time 6:54 AM MST 5:23 PM MST
Civil Twilight 6:26 AM MST 5:51 PM MST
Nautical Twilight 5:55 AM MST 6:23 PM MST
Astronomical Twilight 5:23 AM MST 6:54 PM MST
Moon 12:20 PM MST (2/8) 2:08 AM MST (2/8)
Length of Visible Light 11h 24m
Length of Day
10h 29m
Waxing Gibbous, 69% of the Moon is Illuminated
Feb 8
Waxing Gibbous
Feb 14
Full
Feb 22
Last Quarter
Mar 1
New
Mar 8
First Quarter

Hourly Weather History & Observations

Time (MST) Temp. Windchill Dew Point Humidity Pressure Visibility Wind Dir Wind Speed Gust Speed Precip Events Conditions
12:55 AM 8.1 °F -2.0 °F 5.0 °F 87% 30.01 in 10.0 mi WNW 5.8 mph - N/A   Clear
1:55 AM 12.0 °F 4.1 °F 6.1 °F 77% 29.98 in 10.0 mi North 4.6 mph - N/A   Clear
2:55 AM 7.0 °F -5.7 °F 3.0 °F 84% 29.97 in 10.0 mi North 8.1 mph - N/A   Clear
3:55 AM 12.0 °F -1.3 °F 6.1 °F 77% 29.96 in 10.0 mi North 10.4 mph - N/A   Clear
4:55 AM 14.0 °F 5.1 °F 8.1 °F 77% 29.94 in 10.0 mi North 5.8 mph - N/A   Scattered Clouds
5:55 AM 8.1 °F -2.0 °F 3.0 °F 80% 29.99 in 10.0 mi North 5.8 mph - N/A   Clear
6:55 AM 8.1 °F -4.3 °F 3.0 °F 80% 30.01 in 10.0 mi NNE 8.1 mph - N/A   Clear
7:55 AM 10.9 °F - 6.1 °F 81% 30.01 in 10.0 mi Calm Calm - N/A   Clear
8:55 AM 17.1 °F - 10.9 °F 77% 30.00 in 10.0 mi Calm Calm - N/A   Clear
9:55 AM 24.1 °F - 15.1 °F 69% 29.98 in 10.0 mi Calm Calm - N/A   Clear
10:55 AM 30.0 °F - 19.0 °F 64% 29.99 in 10.0 mi Calm Calm - N/A   Clear
11:55 AM 32.0 °F 28.7 °F 18.0 °F 56% 29.91 in 10.0 mi SE 3.5 mph - N/A   Clear
12:55 PM 33.1 °F 30.0 °F 21.9 °F 64% 29.94 in 10.0 mi East 3.5 mph - N/A   Clear
1:55 PM 36.0 °F - 23.0 °F 59% 29.91 in 10.0 mi Calm Calm - N/A   Clear
2:55 PM 35.1 °F 32.2 °F 24.1 °F 64% 29.96 in 10.0 mi NNW 3.5 mph - N/A   Clear
3:55 PM 37.9 °F - 25.0 °F 60% 29.92 in 10.0 mi Calm Calm - N/A   Clear
4:55 PM 28.0 °F - 23.0 °F 81% 29.97 in 10.0 mi Calm Calm - N/A   Clear
5:55 PM 21.0 °F 12.4 °F 19.0 °F 92% 30.02 in 10.0 mi North 6.9 mph - N/A   Clear
6:55 PM 19.0 °F - 16.0 °F 88% 30.06 in 10.0 mi Calm Calm - N/A   Clear
7:55 PM 19.0 °F 8.2 °F 16.0 °F 88% 30.06 in 10.0 mi North 9.2 mph - N/A   Clear
8:55 PM 17.1 °F - 14.0 °F 88% 30.06 in 10.0 mi Calm Calm - N/A   Clear
9:55 PM 16.0 °F 7.4 °F 12.9 °F 88% 30.05 in 10.0 mi North 5.8 mph - N/A   Clear
10:45 PM 17.1 °F 1.0 °F 15.1 °F 92% 29.95 in 4.0 mi NNE 18.4 mph - N/A   Partly Cloudy
10:52 PM 15.8 °F -0.6 °F 15.8 °F 100% 29.96 in 2.0 mi NE 18.4 mph - N/A   Mostly Cloudy
11:12 PM 14.0 °F -1.4 °F 12.0 °F 92% 29.98 in 1.0 mi NE 15.0 mph - N/A   Mist
11:27 PM 14.0 °F 2.9 °F 12.0 °F 92% 29.98 in 0.8 mi NE 8.1 mph 17.3 mph N/A   Overcast
11:55 PM 14.0 °F - 12.9 °F 95% 30.07 in 0.8 mi Calm Calm - N/A   Overcast